Weather History for Camp Pendleton, CA

Change the Weather History Date:

Tuesday, December 4, 2012

  Actual Average Record
Temperature  
Mean Temperature 64 °F -  
Max Temperature 73 °F 66 °F 81 °F (2000)
Min Temperature 55 °F 38 °F 28 °F (2011)
Degree Days  
Heating Degree Days 1    
Growing Degree Days 14 (Base 50)    
Moisture  
Dew Point 55 °F    
Average Humidity 81    
Maximum Humidity 94    
Minimum Humidity 57    
Precipitation  
Precipitation 0.00 in - - ()
Sea Level Pressure  
Sea Level Pressure 30.18 in    
Wind  
Wind Speed 1 mph (SSW)    
Max Wind Speed 8 mph    
Max Gust Speed -    
Visibility 6 miles    
Events Fog    
Averages and records for this station are not official NWS values.
T = Trace of Precipitation, MM = Missing Value Source: NWS Daily Summary

Daily Weather History Graph

Daily Weather History Graph

Search for Another Location

Airport:

Trip Planner

Search our weather history database for the weather conditions in past years. The results will help you decide how hot, cold, wet, or windy it might be!

Date:

Astronomy

Dec. 04, 2012 Rise Set
Actual Time 6:38 AM PST 4:41 PM PST
Civil Twilight 6:10 AM PST 5:08 PM PST
Nautical Twilight 5:40 AM PST 5:39 PM PST
Astronomical Twilight 5:09 AM PST 6:09 PM PST
Moon 10:21 PM PST (12/4) 10:44 AM PST (12/4)
Length of Visible Light 10h 58m
Length of Day
10h 03m
Waning Gibbous, 68% of the Moon is Illuminated
Dec 4
Waning Gibbous
Dec 6
Last Quarter
Dec 13
New
Dec 19
First Quarter
Dec 28
Full

Hourly Weather History & Observations

Time (PST) Temp. Dew Point Humidity Pressure Visibility Wind Dir Wind Speed Gust Speed Precip Events Conditions
12:54 AM 57.9 °F 55.0 °F 90% 30.18 in 9.0 mi Calm Calm - N/A   Overcast
1:05 AM 57.2 °F 55.4 °F 94% 30.18 in 10.0 mi Calm Calm - N/A   Overcast
1:45 AM 59.0 °F 55.4 °F 88% 30.18 in 8.0 mi Calm Calm - N/A   Overcast
1:54 AM 59.0 °F 55.9 °F 90% 30.18 in 9.0 mi Calm Calm - N/A   Overcast
2:12 AM 59.0 °F 55.4 °F 88% 30.18 in 9.0 mi Calm Calm - N/A   Overcast
2:54 AM 59.0 °F 55.9 °F 90% 30.19 in 10.0 mi Calm Calm - N/A   Overcast
3:44 AM 59.0 °F 55.4 °F 88% 30.19 in 10.0 mi Calm Calm - N/A   Overcast
3:54 AM 59.0 °F 55.9 °F 90% 30.19 in 10.0 mi Calm Calm - N/A   Mostly Cloudy
4:50 AM 57.2 °F 55.4 °F 94% 30.20 in 9.0 mi Calm Calm - N/A   Scattered Clouds
4:54 AM 57.0 °F 54.0 °F 89% 30.19 in 7.0 mi Calm Calm - N/A   Scattered Clouds
5:27 AM 55.4 °F 53.6 °F 94% 30.20 in 1.8 mi Calm Calm - N/A   Clear
5:36 AM 57.2 °F 53.6 °F 88% 30.20 in 3.0 mi Calm Calm - N/A   Clear
5:54 AM 55.9 °F 53.1 °F 90% 30.20 in 5.0 mi Calm Calm - N/A   Mostly Cloudy
6:24 AM 55.4 °F 51.8 °F 88% 30.20 in 4.0 mi Calm Calm - N/A   Mostly Cloudy
6:54 AM 55.9 °F 53.1 °F 90% 30.20 in 8.0 mi Calm Calm - N/A   Mostly Cloudy
7:54 AM 57.0 °F 54.0 °F 89% 30.21 in 10.0 mi Calm Calm - N/A   Mostly Cloudy
8:54 AM 61.0 °F 55.9 °F 83% 30.23 in 10.0 mi Calm Calm - N/A   Mostly Cloudy
9:54 AM 70.2 °F 55.0 °F 59% 30.23 in 10.0 mi South 3.5 mph - N/A   Mostly Cloudy
10:54 AM 70.9 °F 55.9 °F 59% 30.21 in 10.0 mi SSW 3.5 mph - N/A   Scattered Clouds
11:54 AM 73.2 °F 57.0 °F 57% 30.17 in 10.0 mi South 6.9 mph - N/A   Scattered Clouds
12:54 PM 72.5 °F 57.0 °F 58% 30.14 in 10.0 mi SW 8.1 mph - N/A   Mostly Cloudy
1:54 PM 71.4 °F 55.9 °F 58% 30.12 in 8.0 mi SW 6.9 mph - N/A   Mostly Cloudy
2:54 PM 70.5 °F 57.0 °F 62% 30.13 in 5.0 mi SSW 6.9 mph - N/A   Haze
3:54 PM 67.8 °F 57.0 °F 68% 30.13 in 6.0 mi SSW 5.8 mph - N/A   Haze
4:54 PM 65.7 °F 57.0 °F 74% 30.13 in 4.0 mi SE 3.5 mph - N/A   Haze
5:54 PM 64.8 °F 55.0 °F 71% 30.13 in 6.0 mi WSW 3.5 mph - N/A   Haze
6:54 PM 63.3 °F 53.1 °F 69% 30.14 in 5.0 mi Calm Calm - N/A   Haze
7:12 PM 55.4 °F 51.8 °F 88% 30.15 in 3.0 mi Calm Calm - N/A   Haze
7:27 PM 62.6 °F 53.6 °F 72% 30.15 in 4.0 mi NNE 3.5 mph - N/A   Haze
7:54 PM 55.4 °F 50.0 °F 82% 30.16 in 2.5 mi Calm Calm - N/A   Scattered Clouds
8:54 PM 57.9 °F 54.0 °F 87% 30.16 in 0.5 mi Calm Calm - N/A Fog Fog
9:54 PM 57.9 °F 55.9 °F 93% 30.17 in 0.5 mi Calm Calm - N/A Fog Fog
10:54 PM 59.0 °F 55.9 °F 90% 30.17 in 0.2 mi ENE 4.6 mph - N/A Fog Fog
11:54 PM 59.0 °F 55.9 °F 90% 30.16 in 0.2 mi NNE 4.6 mph - N/A Fog Fog